GOK RJFU-RJCC

Flight info

Callsign GOK
Flight time N/A
Altitude 39000
Route OOITA Y45 MIHOU Y14 GOLDO Y19 MRE Y13 SIRAO Y139 NAVER
Aircraft CL60/M-SBDE1E2E3FGHIJ1J4J5J7M3RWXYZ/LB1V1D1

Departure

Time N/A
Airport Nagasaki Airport (RJFU)

Arrival

Time 2026-04-30 00:17
Airport New Chitose Airport (RJCC)
Time Latitude Longitude Altitude Speed Heading
2026-04-29 23:55 41.27702 140.97139 41223 ft 486 kts
2026-04-29 23:56 41.30677 140.98622 41200 ft 487 kts
2026-04-29 23:56 41.37065 141.02039 41163 ft 502 kts 13°
2026-04-29 23:56 41.40142 141.04492 41174 ft 520 kts 21°
2026-04-29 23:57 41.43071 141.07315 41153 ft 523 kts 22°
2026-04-29 23:57 41.48999 141.12947 41134 ft 521 kts 22°
2026-04-29 23:58 41.54886 141.18550 41160 ft 519 kts 22°
2026-04-29 23:58 41.60758 141.24158 41129 ft 517 kts 22°
2026-04-29 23:58 41.63670 141.26945 40990 ft 510 kts 22°
2026-04-29 23:59 41.66536 141.29707 40565 ft 504 kts 22°
2026-04-29 23:59 41.69395 141.32445 39550 ft 511 kts 20°
2026-04-29 23:59 41.72325 141.35228 38387 ft 517 kts 20°
2026-04-29 23:59 41.75247 141.38020 37091 ft 524 kts 21°
2026-04-30 00:00 41.78202 141.40871 36131 ft 523 kts 22°
2026-04-30 00:00 41.81133 141.43709 35298 ft 520 kts 21°
2026-04-30 00:00 41.84081 141.46558 34645 ft 515 kts 21°
2026-04-30 00:00 41.86941 141.49322 34076 ft 508 kts 21°
2026-04-30 00:01 41.89791 141.52080 33513 ft 503 kts 22°
2026-04-30 00:01 41.92644 141.54842 32959 ft 496 kts 22°
2026-04-30 00:01 41.95414 141.57532 32577 ft 485 kts 23°
2026-04-30 00:01 41.98121 141.60159 31757 ft 485 kts 24°
2026-04-30 00:02 42.00872 141.62814 30992 ft 480 kts 25°
2026-04-30 00:02 42.03546 141.65411 30452 ft 471 kts 26°
2026-04-30 00:02 42.06174 141.67982 29984 ft 459 kts 27°
2026-04-30 00:02 42.08833 141.70131 29159 ft 430 kts 13°
2026-04-30 00:03 42.11608 141.71199 28163 ft 409 kts
2026-04-30 00:03 42.14106 141.71977 27147 ft 403 kts
2026-04-30 00:03 42.16957 141.72926 26064 ft 395 kts
2026-04-30 00:03 42.19538 141.73796 25137 ft 387 kts
2026-04-30 00:04 42.22197 141.74670 24059 ft 384 kts
2026-04-30 00:04 42.24778 141.75510 22764 ft 385 kts
2026-04-30 00:04 42.27328 141.76349 21576 ft 382 kts
2026-04-30 00:05 42.32083 141.77934 19442 ft 374 kts
2026-04-30 00:05 42.34592 141.78763 18421 ft 366 kts
2026-04-30 00:05 42.37070 141.79584 17283 ft 362 kts
2026-04-30 00:05 42.39454 141.80377 16017 ft 357 kts
2026-04-30 00:06 42.41832 141.81171 15194 ft 341 kts
2026-04-30 00:06 42.44136 141.81935 14656 ft 346 kts
2026-04-30 00:06 42.46549 141.82716 14121 ft 358 kts
2026-04-30 00:06 42.48991 141.83519 13626 ft 361 kts
2026-04-30 00:07 42.51431 141.84338 12935 ft 361 kts
2026-04-30 00:07 42.53886 141.85164 12542 ft 359 kts
2026-04-30 00:07 42.56330 141.85977 12029 ft 362 kts
2026-04-30 00:07 42.58785 141.86675 11563 ft 357 kts
2026-04-30 00:08 42.61288 141.86578 11059 ft 355 kts 352°
2026-04-30 00:08 42.63751 141.86293 10532 ft 351 kts 353°
2026-04-30 00:08 42.66146 141.86075 10230 ft 334 kts 353°
2026-04-30 00:08 42.68447 141.85870 9686 ft 323 kts 353°
2026-04-30 00:09 42.70633 141.85657 9314 ft 308 kts 353°
2026-04-30 00:09 42.72755 141.85446 8893 ft 298 kts 353°
2026-04-30 00:09 42.74806 141.85246 8496 ft 289 kts 353°
2026-04-30 00:09 42.76796 141.85057 8122 ft 281 kts 353°
2026-04-30 00:10 42.78720 141.84876 7745 ft 275 kts 353°
2026-04-30 00:10 42.80649 141.84688 7242 ft 274 kts 352°
2026-04-30 00:10 42.82567 141.84447 6665 ft 273 kts 347°
2026-04-30 00:10 42.84399 141.83862 6145 ft 270 kts 341°
2026-04-30 00:11 42.86195 141.83131 5847 ft 257 kts 333°
2026-04-30 00:11 42.87532 141.81778 5864 ft 231 kts 306°
2026-04-30 00:11 42.88280 141.79930 5779 ft 214 kts 285°
2026-04-30 00:11 42.88371 141.78003 5716 ft 185 kts 268°
2026-04-30 00:12 42.88339 141.76404 5601 ft 152 kts 271°
2026-04-30 00:12 42.88370 141.75072 5295 ft 133 kts 273°
2026-04-30 00:12 42.88399 141.73785 4452 ft 150 kts 270°
2026-04-30 00:12 42.88399 141.72342 3725 ft 150 kts 266°
2026-04-30 00:13 42.88399 141.70949 3103 ft 149 kts 266°
2026-04-30 00:13 42.88415 141.69530 2403 ft 151 kts 267°
2026-04-30 00:13 42.88439 141.68158 1979 ft 144 kts 267°
2026-04-30 00:13 42.88441 141.66739 1382 ft 153 kts 265°
2026-04-30 00:14 42.87954 141.65704 865 ft 137 kts 180°
2026-04-30 00:14 42.87088 141.65965 918 ft 128 kts 157°
2026-04-30 00:14 42.86311 141.66653 1257 ft 136 kts 144°
2026-04-30 00:14 42.85521 141.67453 1450 ft 144 kts 151°
2026-04-30 00:15 42.84647 141.68120 1404 ft 142 kts 155°
2026-04-30 00:15 42.83720 141.68449 1121 ft 138 kts 174°
2026-04-30 00:15 42.82791 141.68574 878 ft 131 kts 176°
2026-04-30 00:15 42.81908 141.68674 678 ft 124 kts 175°
2026-04-30 00:16 42.81046 141.68802 515 ft 123 kts 173°
2026-04-30 00:16 42.80216 141.68742 344 ft 120 kts 187°
2026-04-30 00:16 42.79371 141.68733 219 ft 121 kts 173°
2026-04-30 00:16 42.78537 141.68867 96 ft 116 kts 171°
2026-04-30 00:17 42.77828 141.68991 80 ft 89 kts 170°
2026-04-30 00:17 42.77320 141.69061 74 ft 53 kts 183°
2026-04-30 00:17 42.77064 141.68939 77 ft 18 kts 236°
2026-04-30 00:17 42.77115 141.68890 77 ft 12 kts 343°
2026-04-30 00:18 42.77220 141.68870 75 ft 18 kts 353°
2026-04-30 00:18 42.77361 141.68849 76 ft 21 kts 354°
2026-04-30 00:18 42.77515 141.68822 80 ft 23 kts 352°
2026-04-30 00:18 42.77681 141.68791 83 ft 25 kts 353°
2026-04-30 00:19 42.77862 141.68756 81 ft 29 kts 351°
2026-04-30 00:19 42.78084 141.68715 75 ft 34 kts 354°
2026-04-30 00:19 42.78335 141.68675 73 ft 37 kts 351°
2026-04-30 00:19 42.78459 141.68637 76 ft 4 kts 220°
2026-04-30 00:20 42.78418 141.68608 76 ft 7 kts 240°
2026-04-30 00:20 42.78402 141.68547 78 ft 6 kts 256°
2026-04-30 00:20 42.78388 141.68507 80 ft 4 kts 210°
2026-04-30 00:20 42.78349 141.68475 80 ft 8 kts 219°
2026-04-30 00:21 42.78297 141.68416 81 ft 10 kts 221°
2026-04-30 00:21 42.78274 141.68337 85 ft 8 kts 282°
2026-04-30 00:21 42.78294 141.68280 89 ft 5 kts 301°
2026-04-30 00:21 42.78310 141.68245 91 ft 4 kts 301°
2026-04-30 00:22 42.78322 141.68202 93 ft 5 kts 289°
2026-04-30 00:22 42.78334 141.68149 95 ft 6 kts 271°
2026-04-30 00:22 42.78294 141.68098 92 ft 11 kts 193°
2026-04-30 00:22 42.78254 141.68086 90 ft 0 kts 192°